Regional Weather Roundup
Issued by NWS Kansas City/Pleasant Hill, MO

Home | Current Version | Previous Version | Graphics & Text | Print | Product List | Glossary Off
Versions: 1 2 3 4 5 6 7 8 9 10 11 12 13 14 15 16 17 18 19 20 21 22 23 24 25 26 27 28 29 30 31 32 33 34 35 36 37 38 39 40 41 42 43 44 45 46 47 48 49 50

000
ASUS43 KEAX 170011
RWREAX

WEATHER ROUNDUP FOR EASTERN KANSAS AND NORTHWEST MISSOURI
NATIONAL WEATHER SERVICE KANSAS CITY/PLEASANT HILL MO
700 PM CDT WED APR 16 2014

KSZ040-057-103>105-MOZ028-029-037-043-170100-
...KANSAS CITY METROPOLITAN AREA...

CITY           SKY/WX    TMP DP  RH WIND       PRES   REMARKS
K.C. INTL      CLOUDY    61  31  32 S23G33    29.86R
6HR MIN TEMP:  60; 6HR MAX TEMP:  65;

K.C. DOWNTOWN  PTSUNNY   63  33  32 S15G23    29.88R
6HR MIN TEMP:  62; 6HR MAX TEMP:  67;

LEES SUMMIT    PTCLDY    61  31  32 S15G22    29.90R
6HR MIN TEMP:  60; 6HR MAX TEMP:  65;

OLATHE - IXD   PTSUNNY   61  32  33 S17G29    29.89R
6HR MIN TEMP:  60; 6HR MAX TEMP:  64;

OLATHE - OJC   PTSUNNY   61  32  33 S15G28    29.88S
6HR MIN TEMP:  59; 6HR MAX TEMP:  63;

LAWRENCE       PTSUNNY   64  34  32 S16G28    29.85S

$$

MOZ001>008-011>017-020>025-030>033-038>040-044>046-053-054-170100-
...NORTHERN AND CENTRAL MISSOURI...

CITY           SKY/WX    TMP DP  RH WIND       PRES   REMARKS
ST. JOSEPH     PTSUNNY   62  33  33 S22       29.81S
6HR MIN TEMP:  62; 6HR MAX TEMP:  67;

MOSBY          FAIR      63  32  31 S16G22    29.89R
WARRENSBURG    CLEAR    N/A N/A N/A S17       29.93R
WHITEMAN AFB   CLEAR     63  27  25 SW18G26   29.93R
6HR MIN TEMP:  60; 6HR MAX TEMP:  64;

CLINTON        PTCLDY    63  32  31 SW13G20   29.95R
SEDALIA        PTCLDY    61  31  32 S16       29.95R
6HR MIN TEMP:  61; 6HR MAX TEMP:  65;

WARSAW         NOT AVBL
MARSHALL         N/A     64  36  34 S18G26    29.93
CHILLICOTHE      N/A     63  32  31 S13G21    29.89R
6HR MIN TEMP:  60; 6HR MAX TEMP:  66;

MOBERLY        PTCLDY    61  27  27 S15G23    29.96R
KIRKSVILLE     MOCLDY    59  29  31 S16G28    29.92S
6HR MIN TEMP:  59; 6HR MAX TEMP:  64;


$$

MOZ041-047>049-056>058-063>065-088>090-097-170100-
...EASTERN AND SOUTHERN MISSOURI...

CITY           SKY/WX    TMP DP  RH WIND       PRES   REMARKS
ST. LOUIS INTL MOCLDY    56  22  26 S18G28    30.05F
6HR MIN TEMP:  54; 6HR MAX TEMP:  59;

SPIRIT OF STL  PTCLDY    56  21  25 S13G21    30.03S
COLUMBIA       PTCLDY    59  26  28 S17G26    29.98R
JEFFERSON CITY CLEAR     59  25  27 S15       29.98R
MEXICO         PTCLDY    55  30  38 S22       29.98R
HANNIBAL       CLEAR     57  18  21 S12G18    29.98R
ROLLA          CLEAR     54  26  34 S14       30.00R
LEBANON        PTCLDY    55  25  30 S16G25    30.00R
OSAGE BEACH    PTCLDY    57  25  28 S12G21    30.01R
SPRINGFIELD    CLEAR     60  26  27 S15       29.97R
BRANSON        PTCLDY    57  27  30 S14       30.02R
NEVADA         PTCLDY    61  32  33 S13       29.97R
JOPLIN         CLEAR     61  31  32 S15G23    29.97R
WEST PLAINS    CLEAR     53  26  35 S12       30.06S
MALDEN         MOCLDY    55  34  44 SE7       30.13F

$$

IAZ060-094-KSZ022-034>040-054-083-096-NEZ052-066-093-170100-
...KANSAS...SOUTHEAST NEBRASKA AND IOWA...

CITY           SKY/WX    TMP DP  RH WIND       PRES   REMARKS
TOPEKA         PTSUNNY   69  30  23 S13       29.83R
6HR MIN TEMP:  62; 6HR MAX TEMP:  70; 6HR PCP: TRACE;

MANHATTAN      PTSUNNY   66  39  37 N13G25    29.85R
EMPORIA        PTSUNNY   68  29  23 S16       29.85R
CHANUTE        SUNNY     62  33  33 S17       29.93R
WICHITA        MOSUNNY   70  29  21 SW9       29.85R
OMAHA          MOSUNNY   43  32  65 NW28G35   29.88R WCI  33
LINCOLN        SUNNY     47  30  51 N29G36    29.94R
LAMONI         PTCLDY    61  32  33 S22G32    29.80S
DES MOINES     MOCLDY    63  32  31 S21G37    29.76F

$$




USA.gov is the U.S. government's official web portal to all federal, state and local government web resources and services.